Regional Weather Roundup
Issued by NWS Northern Indiana

Home | Current Version | Previous Version | Text Only | Print | Product List | Glossary On
Versions: 1 2 3 4 5 6 7 8 9 10 11 12 13 14 15 16 17 18 19 20 21 22 23 24 25 26 27 28 29 30 31 32 33 34 35 36 37 38 39 40 41 42 43 44 45 46 47 48 49 50
000
ASUS43 KIWX 261410
RWRIWX

KIWX WEATHER ROUNDUP
NATIONAL WEATHER SERVICE NORTHERN INDIANA
1000 AM EDT SAT JUL 26 2014

NOTE: "FAIR" INDICATES FEW OR NO CLOUDS BELOW 12,000 FEET WITH NO
SIGNIFICANT WEATHER AND/OR OBSTRUCTIONS TO VISIBILITY.

* THESE STATIONS ARE NOT UNDER NWS QUALITY CONTROL. THEY ALSO MAY NOT
  REPORT WEATHER SUCH AS PRECIPITATION OR FOG.

INZ001>027-261500-
NORTHERN INDIANA

CITY           SKY/WX    TMP DP  RH WIND       PRES   REMARKS
GARY*          CLOUDY    72  64  78 S12       29.86F
VALPARAISO     CLOUDY    70  63  78 SW8       29.88F
MICHIGAN CITY* PTSUNNY   70  61  73 S6        29.86F
LAPORTE*       MOSUNNY   70  62  75 S8        29.88F
KNOX*          CLOUDY    72  62  71 SW6       29.88S
SOUTH BEND     MOSUNNY   72  61  68 SW9       29.88F
ELKHART*       MOSUNNY   70  61  73 SW6       29.90F
GOSHEN         PTSUNNY   71  62  73 S8        29.89F
MONTICELLO*    CLOUDY    70  65  84 SW9       29.89S
LOGANSPORT*    PTSUNNY   72  63  73 SW7       29.90F
ROCHESTER*     SUNNY     75  63  64 SW7       29.90S
WARSAW*        CLOUDY    70  63  78 SW5       29.90S
ANGOLA*        CLOUDY    72  63  73 VRB6      29.92S
FORT WAYNE     PTSUNNY   73  63  70 SW10      29.93S
HUNTINGTON*    PTSUNNY   72  64  75 SW5       29.92S
PERU/GRISSOM   MOSUNNY   74  68  81 SW9       29.90F
MARION*        CLOUDY    72  61  68 W9        29.94R

$$
INZ028>050-261500-
CENTRAL INDIANA

CITY           SKY/WX    TMP DP  RH WIND       PRES   REMARKS
LAFAYETTE      PTSUNNY   73  67  81 SW10      29.89S
KOKOMO*        MOSUNNY   73  64  73 SW12      29.91F
MUNCIE*        MOSUNNY   74  61  63 SW9G20    29.93S
INDIANAPOLIS   CLOUDY    70  64  81 SW13      29.93F

$$
MIZ043>046-050>051-056>058-064>065-071>073-077>080-261500-
SOUTHWEST LOWER MICHIGAN

CITY           SKY/WX    TMP DP  RH WIND       PRES   REMARKS
BATTLE CREEK   PTSUNNY   71  61  70 SW5       29.91S
BENTON HARBOR  CLOUDY    68  61  78 S6        29.87F
COLDWATER*     PTSUNNY   71  62  71 SW6       29.92S
HILLSDALE*     SUNNY     71  63  75 SW3       29.93S
HOLLAND        CLOUDY    69  62  78 S3        29.89F
GRAND RAPIDS   CLOUDY    69  61  75 SW7       29.89F
KALAMAZOO      MOSUNNY   70  61  73 S3        29.90F
STURGIS*       PTSUNNY   70  63  78 S6        29.90F
THREE RIVERS*  CLOUDY    69  63  81 E3        29.91F

$$
OHZ001>008-015>018-024>025-261500-
NORTHWEST OHIO

CITY           SKY/WX    TMP DP  RH WIND       PRES   REMARKS
WAUSEON*       FAIR      73  63  68 SW7       29.93S
DEFIANCE       SUNNY     74  61  63 VRB6      29.93S
FINDLAY        SUNNY     75  61  61 SW8       29.93F
TOLEDO EXPRESS SUNNY     72  60  66 SW8       29.93R
TOLEDO METCALF SUNNY     74  60  61 SW10      29.94S
LIMA           PTSUNNY   74  62  66 SW9       29.95S

$$
&&


USA.gov is the U.S. government's official web portal to all federal, state and local government web resources and services.